Regional Weather Roundup
Issued by NWS

Home | Current Version | Previous Version | Graphics & Text | Print | Product List | Glossary On
Versions: 1 2 3 4 5 6 7 8 9 10 11 12 13 14 15 16 17 18 19 20 21 22 23 24 25 26 27 28 29 30 31 32 33 34 35 36 37 38 39 40 41 42 43 44 45 46 47 48 49 50
000
ASUS43 KDMX 050406
RWRIA

WEATHER ROUNDUP FOR IOWA
NATIONAL WEATHER SERVICE DES MOINES IA
1000 PM CST SUN DEC 04 2016

NOTE: "FAIR" INDICATES FEW OR NO CLOUDS BELOW 12,000 FEET WITH NO
SIGNIFICANT WEATHER AND/OR OBSTRUCTIONS TO VISIBILITY.

* - THESE STATIONS ARE NOT NWS STATIONS...THUS NOT UNDER NWS
QUALITY CONTROL.  THEY ALSO DO NOT REPORT WEATHER SUCH
AS PRECIPITATION OR FOG.

IAZ001>003-012>014-020>022-031>034-043>046-050500-
   NORTHWEST IOWA

CITY           SKY/WX    TMP DP  RH WIND       PRES   REMARKS
CARROLL *      CLEAR     34  34 100 SW16      29.88R WCI  23
CHEROKEE *     CLEAR     32  32 100 S6        29.85S WCI  26
DENISON *      CLEAR     32  30  93 S7        29.86F WCI  26
LE MARS *      CLEAR     32  32 100 S6        29.84F WCI  26
ORANGE CITY *  CLEAR     30  30 100 CALM      29.82F
SHELDON *      CLEAR     30  30 100 S8        29.81S WCI  23
SIOUX CITY     CLEAR     32  30  92 E9        29.85S WCI  24
SPENCER        CLEAR     33  32  96 SW13      29.83R WCI  24
STORM LAKE *   CLEAR     32  32 100 SW7       29.85S WCI  26
$$

IAZ055>058-069>071-079>083-090>094-050500-
   SOUTHWEST IOWA

CITY           SKY/WX    TMP DP  RH WIND       PRES   REMARKS
ATLANTIC *     CLEAR     30  30 100 S6        29.92R WCI  24
AUDUBON *      CLEAR     32  30  93 S7        29.90S WCI  26
CLARINDA *       N/A     32  32 100 S6        29.96S WCI  26
COUNCIL BLFS * CLEAR     36  34  93 S9        29.90S WCI  29
CRESTON *      CLEAR     32  32 100 SW7       29.94S FOG     WCI  26
HARLAN  *      CLEAR     32  32 100 S6        29.93S WCI  26
LAMONI         CLEAR     32  31  96 S8        29.95R FOG     WCI  25
RED OAK *      CLEAR     32  32 100 S5        29.93S WCI  27
SHENANDOAH *   CLEAR     32  32 100 S6        29.94F WCI  26
$$

IAZ047>049-059>061-072>074-084-050500-
   CENTRAL IOWA

CITY           SKY/WX    TMP DP  RH WIND       PRES   REMARKS
AMES           CLEAR     31  31 100 SW7       29.90R WCI  24
ANKENY *       CLEAR     34 N/A N/A SW7       29.93R WCI  28
BOONE *        CLEAR     32  32 100 SW8       29.89R FOG     WCI  25
CHARITON *       N/A     34  32  93 SW8       29.95R WCI  27
DES MOINES     CLEAR     34  32  92 SW6       29.93R WCI  29
GRINNELL*      CLEAR     32  32  99 SW9       29.92R FOG     WCI  24
KNOXVILLE *    PTCLDY    34  32  93 SW9       29.92R WCI  26
MARSHALLTOWN   PTCLDY    32  32 100 SW12      29.90R FOG     WCI  23
NEWTON *       CLEAR     34  32  93 SW12      29.92R FOG     WCI  25
PELLA *        MOCLDY    35  33  93 SW12      29.94R FOG     WCI  26
PERRY *          N/A     34  34  99 SW8       29.90R WCI  27
$$

IAZ004>006-015-016-023>025-035-036-050500-
   NORTH CENTRAL IOWA

CITY           SKY/WX    TMP DP  RH WIND       PRES   REMARKS
ALGONA *       CLEAR     34  32  93 SW12      29.84S WCI  25
CLARION *      PTCLDY    30  32 100 S10       29.87R FOG     WCI  21
ESTHERVILLE    CLEAR     31  31 100 S10       29.82R WCI  22
FORT DODGE *   CLEAR     30  27  86 S6        29.88R WCI  24
MASON CITY     CLOUDY    33  32  96 SW10      29.86S FOG     WCI  25
FOREST CITY *    N/A     32  32 100 SW8       29.84S WCI  25
WEBSTER CITY *   N/A     30  32 100 SW10      29.86R WCI  21
IOWA FALLS *     N/A     33  32  96 SW12      29.88S FOG     WCI  24
$$

IAZ007>011-017>019-026>030-037>042-050>054-066-050500-
   NORTHEAST IOWA

CITY           SKY/WX    TMP DP  RH WIND       PRES   REMARKS
CEDAR RAPIDS   CLOUDY    33  33 100 W8        29.92R WCI  26
CHARLES CITY * FOG       34  34 100 SW9       29.87R VSB 1   WCI  26
CLINTON *      CLOUDY    33  31  92 W14       29.93R WCI  23
DECORAH *      CLOUDY    32  32 100 SW8G17    29.85R FOG     WCI  25
DUBUQUE        CLOUDY    31  30  96 W13       29.90R WCI  21
MONTICELLO *   CLOUDY    32  30  93 W13       29.91S WCI  22
OELWEIN *      CLOUDY    32  32 100 SW12      29.89R FOG     WCI  23
WATERLOO       PTCLDY    32  30  92 SW5       29.88S FOG     WCI  27
$$

IAZ064-065-067-068-078-050500-
   EAST CENTRAL IOWA

CITY           SKY/WX    TMP DP  RH WIND       PRES   REMARKS
DAVENPORT      CLOUDY    33  31  92 W14       29.94R WCI  23
IOWA CITY      CLOUDY    35  32  88 W10       29.96R WCI  27
MUSCATINE *    CLOUDY    36  32  87 SW9G15    29.97R WCI  29
QUAD CITIES    CLOUDY    35  31  85 W12       29.95R WCI  27
$$

IAZ062-063-075>077-085>089-095>099-050500-
   SOUTHEAST IOWA

CITY           SKY/WX    TMP DP  RH WIND       PRES   REMARKS
BURLINGTON     CLOUDY    34  32  92 SW10      29.96F WCI  26
FAIRFIELD *    CLOUDY    36  32  87 SW10      29.95S WCI  28
FORT MADISON * CLOUDY    34  34 100 SW6       29.97F WCI  29
KEOKUK *       CLOUDY    36  34  93 SW7       29.97S WCI  30
OSKALOOSA *    CLOUDY    33  32  97 SW9       29.95R FOG     WCI  25
CENTERVILLE *  CLOUDY    32  32 100 SW10      29.98R WCI  24
OTTUMWA        CLOUDY    35  31  85 SW12      29.94R WCI  27
WASHINGTON *   CLOUDY    36  34  93 W13G21    29.96R WCI  27
$$

ABBREVIATIONS USED IN REMARKS
   TC - TEMPERATURES IN CELSIUS
  WCI - WIND CHILL INDEX
   HX - HEAT INDEX
  VSB - VISIBILITY
$$





USA.gov is the U.S. government's official web portal to all federal, state and local government web resources and services.